User: anonymous   Login
Location: Lugrin
(46.4033°N, 6.6674°E)
Time: 12:40:17
(UTC+00:00)
Language:

Cosmos 1975 - Orbit

View from above orbital plane
View from above orbital plane
View from above satellite
View from above satellite

Ground track
Ground track

The orbit data is extracted from the following two-line orbital elements,

1 19573U 88093A   21163.04695265  .00000149  00000-0  84159-5 0  9999
2 19573  82.5194  15.8085 0014842  23.9840 336.2075 15.05178631778733
Epoch (UTC): 12 June 2021 01:07:36
Eccentricity: 0.0014842
inclination: 82.5194°
perigee height: 540 km
apogee height: 561 km
right ascension of ascending node: 15.8085°
argument of perigee: 23.9840°
revolutions per day: 15.05178631
mean anomaly at epoch: 336.2075°
orbit number at epoch: 77873

The dashed part of the orbit path shows where the satellite is in the earth's shadow,  

DLR